Location: Newark
(45.8667°N, 9.7333°E)
Time: 06:07:48
(UTC+00:00)

Transit 4A - Pass Details

Date: 29 January 2020
Orbit: 872 x 973 km, 66.8° (Epoch: 19 February)

Event Time Altitude Azimuth Distance (km) Brightness Sun altitude
Rises 10:21:17 0° 325° (NW) 3,483 10.3 24.0°
Reaches altitude 10° 10:26:40 10° 5° (N) 2,532 9.7 24.3°
Maximum altitude 10:27:35 10° 15° (NNE) 2,506 9.8 24.4°
Drops below altitude 10° 10:28:30 10° 24° (NNE) 2,530 9.8 24.4°
Sets 10:33:51 0° 65° (ENE) 3,469 10.8 24.7°
